Weather History for Honolulu, HI

Change the Weather History Date:

Tuesday, January 8, 2013

  Actual Average Record
Temperature  
Mean Temperature 77 °F 73 °F  
Max Temperature 82 °F 80 °F 85 °F (1990)
Min Temperature 71 °F 67 °F 58 °F (1971)
Degree Days  
Heating Degree Days 0 0  
Month to date heating degree days 0 0  
Since 1 July heating degree days 0 0  
Cooling Degree Days 12 8  
Month to date cooling degree days 32 66  
Year to date cooling degree days 32 66  
Growing Degree Days 27 (Base 50)    
Moisture  
Dew Point 64 °F    
Average Humidity 68    
Maximum Humidity 84    
Minimum Humidity 51    
Precipitation  
Precipitation T in 0.10 in 3.69 in (1980)
Month to date precipitation 0.15 0.75  
Year to date precipitation 0.15 0.75  
Snow  
Snow 0.00 in - - ()
Month to date snowfall 0.0  
Since 1 July snowfall 0.0  
Snow Depth 0.00 in    
Sea Level Pressure  
Sea Level Pressure 29.96 in    
Wind  
Wind Speed 13 mph (ENE)    
Max Wind Speed 26 mph    
Max Gust Speed 31 mph    
Visibility 10 miles    
Events Rain    
T = Trace of Precipitation, MM = Missing Value Source: NWS Daily Summary

Daily Weather History Graph

Daily Weather History Graph

Search for Another Location

Airport:

Trip Planner

Search our weather history database for the weather conditions in past years. The results will help you decide how hot, cold, wet, or windy it might be!

Date:

Astronomy

Jan. 08, 2013 Rise Set
Actual Time 7:11 AM HST 6:06 PM HST
Civil Twilight 6:47 AM HST 6:30 PM HST
Nautical Twilight 6:19 AM HST 6:57 PM HST
Astronomical Twilight 5:52 AM HST 7:24 PM HST
Moon 3:58 AM HST (1/8) 3:18 PM HST (1/8)
Length of Visible Light 11h 43m
Length of Day
10h 55m
Waning Crescent, 12% of the Moon is Illuminated
Jan 8
Waning Crescent
Jan 11
New
Jan 18
First Quarter
Jan 26
Full
Feb 3
Last Quarter

Hourly Weather History & Observations

Time (HST) Temp. Heat Index Dew Point Humidity Pressure Visibility Wind Dir Wind Speed Gust Speed Precip Events Conditions
12:53 AM 73.0 °F - 64.0 °F 73% 30.00 in 10.0 mi NE 9.2 mph - N/A   Partly Cloudy
1:53 AM 72.0 °F - 64.0 °F 76% 29.99 in 10.0 mi ENE 10.4 mph - 0.00 in   Scattered Clouds
2:53 AM 73.0 °F - 63.0 °F 71% 29.96 in 10.0 mi ENE 9.2 mph - N/A   Partly Cloudy
3:53 AM 73.0 °F - 63.0 °F 71% 29.95 in 10.0 mi ENE 10.4 mph - N/A   Partly Cloudy
4:53 AM 72.0 °F - 64.0 °F 76% 29.94 in 10.0 mi ENE 12.7 mph - N/A   Partly Cloudy
5:53 AM 73.0 °F - 64.0 °F 73% 29.94 in 10.0 mi ENE 15.0 mph 23.0 mph N/A   Partly Cloudy
6:53 AM 72.0 °F - 63.0 °F 73% 29.96 in 10.0 mi ENE 6.9 mph - N/A   Partly Cloudy
7:53 AM 73.9 °F - 64.0 °F 71% 29.96 in 10.0 mi ENE 11.5 mph - N/A   Scattered Clouds
8:53 AM 75.9 °F - 63.0 °F 64% 29.98 in 10.0 mi ENE 13.8 mph 23.0 mph N/A   Scattered Clouds
9:53 AM 78.1 °F - 64.0 °F 62% 29.99 in 10.0 mi NE 13.8 mph - N/A   Scattered Clouds
10:53 AM 80.1 °F 81.5 °F 63.0 °F 56% 29.97 in 10.0 mi East 15.0 mph 24.2 mph N/A   Mostly Cloudy
11:53 AM 78.1 °F - 64.9 °F 64% 29.95 in 10.0 mi ENE 13.8 mph 25.3 mph 0.00 in   Scattered Clouds
12:53 PM 81.0 °F 82.2 °F 63.0 °F 54% 29.93 in 10.0 mi NE 18.4 mph 26.5 mph N/A   Scattered Clouds
1:53 PM 82.0 °F 83.0 °F 62.1 °F 51% 29.90 in 10.0 mi ENE 19.6 mph 26.5 mph N/A   Scattered Clouds
2:53 PM 80.1 °F 81.7 °F 64.0 °F 58% 29.90 in 10.0 mi East 21.9 mph 29.9 mph N/A   Scattered Clouds
3:53 PM 77.0 °F - 64.9 °F 66% 29.92 in 10.0 mi ENE 17.3 mph 27.6 mph 0.00 in   Mostly Cloudy
4:53 PM 77.0 °F - 64.0 °F 64% 29.93 in 10.0 mi ENE 16.1 mph 26.5 mph 0.00 in   Scattered Clouds
5:53 PM 73.9 °F - 66.0 °F 76% 29.95 in 10.0 mi ENE 16.1 mph 21.9 mph 0.00 in Rain Light Rain
6:53 PM 73.0 °F - 64.0 °F 73% 29.97 in 10.0 mi ENE 13.8 mph 23.0 mph 0.00 in   Mostly Cloudy
7:53 PM 73.0 °F - 66.0 °F 79% 29.99 in 10.0 mi ENE 12.7 mph 18.4 mph 0.00 in Rain Light Rain
8:53 PM 73.0 °F - 66.0 °F 79% 30.01 in 10.0 mi ENE 10.4 mph - 0.00 in   Mostly Cloudy
9:53 PM 72.0 °F - 66.0 °F 81% 30.01 in 10.0 mi East 9.2 mph - N/A   Mostly Cloudy
10:53 PM 72.0 °F - 66.0 °F 81% 30.00 in 10.0 mi ENE 10.4 mph - 0.00 in   Mostly Cloudy
11:53 PM 73.0 °F - 64.9 °F 76% 29.99 in 10.0 mi ENE 12.7 mph - N/A   Scattered Clouds